Flag for U.S.A. Weather past 2 weeks in Panama City, Florida, U.S.A.

Now
45 °F

Scattered clouds.


Feels Like: 41 °F
Forecast: 47 / 66 °F
Wind: 8 mph from Northeast

Location: Tyndall Air Force Base

Current Time: Mar 29, 2015 at 7:27:15 AM

Latest Report: Mar 29, 2015 at 6:58 AM


Visibility: 10 mi

Pressure: 30.36 "Hg

Humidity: 61%

Dew point: 32 °F

Location of Panama CityLocation

Historic Weather in Panama City — Graph

°F

Panama City temperature yesterday

Maximum temperature yesterday: 64 °F (at 4:58 PM)
Minimum temperature yesterday: 45 °F (at 6:58 AM)
Average temperature yesterday: 54 °F

Past Weeks' High & Low Weather Summary

 TemperatureHumidityPressure
High80 °F (Mar 16, 11:58 AM)100% (Mar 18, 3:53 AM)30.33 "Hg (Mar 18, 3:53 AM)
Low34 °F (Mar 21, 6:03 AM)29% (Mar 16, 11:58 AM)29.80 "Hg (Mar 27, 2:58 AM)
Average67 °F82%30.05 "Hg
* Reported Mar 14 5:58 AM — Mar 29 5:58 AM, Panama City, Weather by CustomWeather, © 2015

Note: Actual official high and low records may vary slightly from our data, if they occured in-between our weather recording intervals... More about our weather records

Advertising

Panama City weather history for previous 24 hours

 ConditionsComfort  
Time TempWeatherWind HumidityBarometerVisibility
5:58 AM
Sun, Mar 29
45 °FClear.8 mph62%30.33 "Hg10 mi
4:58 AM46 °FClear.12 mph61%30.31 "Hg10 mi
3:58 AM47 °FClear.12 mph58%30.30 "Hg10 mi
2:58 AM48 °FClear.7 mph58%30.30 "Hg10 mi
1:58 AM49 °FClear.7 mph55%30.30 "Hg10 mi
12:58 AM50 °FClear.5 mph53%30.30 "Hg10 mi
11:58 PM
Sat, Mar 28
51 °FClear.7 mph51%30.29 "Hg10 mi
10:58 PM52 °FClear.7 mph50%30.29 "Hg10 mi
9:58 PM55 °FClear.10 mph49%30.27 "Hg10 mi
8:58 PM54 °FClear.6 mph56%30.25 "Hg10 mi
7:58 PM57 °FClear.5 mph44%30.22 "Hg10 mi
6:58 PM59 °FClear.7 mph40%30.20 "Hg10 mi
5:58 PM63 °FSunny.9 mph31%30.18 "Hg10 mi
4:58 PM64 °FSunny.15 mph29%30.17 "Hg10 mi
3:58 PM64 °FSunny.15 mph36%30.16 "Hg10 mi
2:58 PM64 °FSunny.12 mph31%30.17 "Hg10 mi
1:58 PM63 °FSunny.10 mph30%30.19 "Hg10 mi
12:58 PM59 °FSunny.9 mph37%30.22 "Hg10 mi
11:58 AM56 °FSunny.10 mph43%30.23 "Hg10 mi
10:58 AM55 °FSunny.7 mph42%30.26 "Hg10 mi
9:58 AM53 °FSunny.10 mph47%30.25 "Hg10 mi
8:58 AM51 °FSunny.8 mph60%30.24 "Hg10 mi
7:58 AM47 °FSunny.9 mph68%30.22 "Hg10 mi
Weather by CustomWeather, © 2015

See weather overviewHow to use our weather pages